Saturday, July 26, 2014
09:14 UTC
  |  Log In   |  Register Free
Airport Search:

Big Bear City Airport
(L35)

Big Bear City Airport Diagram
No Airport Diagram Available

FAA data valid effective July 24, 2014 until September 18, 2014 (unless otherwise noted).

 
 
 
 
 
 
 
 
 
 
 
 
 
 

Current Aviation Weather for Big Bear City Airport (L35)

The most recent METAR observation for KSBD was updated at: 0250 UTC
METAR Summary (Translated METAR)
KSBD
260250Z 23008KT 10SM SCT200 29/13 A2989
KRIV
(12.9 nm SW from KSBD)
260758Z AUTO 29002KT 10SM CLR 23/16 A2997 RMK AO2 SLP133 T02280157 403560203
TAF Summary (Translated TAF)
KRIV
(12.9 nm SW from KSBD)
2604/2710 VRB06KT 9999 SKC QNH2994INS BECMG 2618/2619 14012KT 9999 BKN100 QNH2994INS TS OMNTS E-SE TEMPO 2623/2703 30012KT BECMG 2703/2704 VRB06KT 9999 SCT100 QNH3001INS TX36/2623Z TN21/2612Z
  Airport Weather Conditions for L35

Current weather conditions are
not available for L35


The nearest NOAA weather station
is at SBD, (21.4 nm SW from L35)
  
 Current Weather at SBD
84° F
Partly Cloudy
Southwest winds at 9.2 mph
SBD NOAA Radar

Pressure: 29.89 in
Humidity: 37%
Wind: Southwest at 9.2 MPH (8 KT)
Dew Point: 55.4°F
Visibility: 10.00 mi


Airport Weather Forecast for L35

Translated METAR and TAF for KSBD
Translated METAR for KSBD (0908 UTC 26 July 2014)
found at http://aviationweather.gov/adds/metars/
 
You entered "KSBD"

Sorry, either there are no data available for your request or you did not enter any valid ICAO airport abbreviations.

See stations.txt for a list of known METAR and TAF locations. Then go back to the ADDS METARs or TAFs page and try again
 
Please try again and, if problems persist, then send mail to ncep.awc.adds@noaa.gov

Find All Airport Services Find A Hotel Find A Rental Car Find A Golf Course Find A Restaurant $100 Hamburger



FBO's on the Field
FBO Company Facility Photos Services Transportation Aviation Fuel Prices: Prices include tax
Catering Weather Repair Courtesy Rental Type 100LL JetA JetA+ MOGAS 8087
 
Big Bear Airport

This FBO has not yet been rated
FS:Epic
Last Updated: Jul-25
Login to update fuel prices
SS:
Contact Big Bear AirportMore FBO Information
 
Add another FBO Facility Photos Catering Weather Repair Courtesy Rental Type 100LL JetA JetA+ MOGAS 8087
Services Transportation Aviation Fuel Prices: Prices include tax


GlobalAir.com Airport Resource Center model-print
model-print
model-print
model-print